This is the latest recevied weather packets stored in our database for station/object OK1FET-16. If no packets are shown the sender has not sent any weather packets the latest 10 day(s).
| Time | Temp. | Humidity | Pressure | Rain* | Wind** | Luminosity | Snow |
|---|---|---|---|---|---|---|---|
| 1787826799 | 36.11° C | 41% | 1071.8 hPa | - | - | - | - |
| 1787826527 | 36.11° C | 42% | 1071.8 hPa | - | - | - | - |
| 1787826255 | 36.67° C | 42% | 1071.8 hPa | - | - | - | - |
| 1787825982 | 37.22° C | 42% | 1071.8 hPa | - | - | - | - |
| 1787825710 | 37.22° C | 43% | 1071.9 hPa | - | - | - | - |
| 1787825437 | 36.67° C | 43% | 1072 hPa | - | - | - | - |
| 1787825165 | 36.67° C | 43% | 1072 hPa | - | - | - | - |
| 1787824892 | 37.22° C | 43% | 1072.1 hPa | - | - | - | - |
| 1787824620 | 36.67° C | 43% | 1072.1 hPa | - | - | - | - |
| 1787824348 | 36.67° C | 43% | 1072.2 hPa | - | - | - | - |
| 1787824075 | 36.67° C | 43% | 1072.2 hPa | - | - | - | - |
| 1787823803 | 36.67° C | 44% | 1072.3 hPa | - | - | - | - |
| 1787823531 | 35.56° C | 44% | 1072.4 hPa | - | - | - | - |
| 1787823259 | 35.56° C | 44% | 1072.4 hPa | - | - | - | - |
| 1787822986 | 36.11° C | 45% | 1072.5 hPa | - | - | - | - |
| 1787822714 | 36.11° C | 45% | 1072.5 hPa | - | - | - | - |
| 1787822442 | 36.11° C | 45% | 1072.5 hPa | - | - | - | - |
| 1787820808 | 36.11° C | 47% | 1072.6 hPa | - | - | - | - |
| 1787820536 | 35.56° C | 48% | 1072.7 hPa | - | - | - | - |
| 1787820263 | 34.44° C | 49% | 1072.6 hPa | - | - | - | - |
| 1787819991 | 33.89° C | 50% | 1072.6 hPa | - | - | - | - |
| 1787819719 | 34.44° C | 50% | 1072.5 hPa | - | - | - | - |
| 1787819446 | 34.44° C | 50% | 1072.3 hPa | - | - | - | - |
| 1787818357 | 33.89° C | 52% | 1072.3 hPa | - | - | - | - |
| 1787818085 | 33.33° C | 52% | 1072.4 hPa | - | - | - | - |
* Rain since midnight (hover to see other rain measurements)
** Current wind speed in m/s (hover to see current wind gust speed)